URMMURSS

Guest
Details From URMM - MINERALNYYE VODY
To URSS - Sochi
Flight Number -
Tags generated
Created
Modified
Stats Distance 145 nm / 269 km
Max Altitude 14,100 ft / 4,298 m
Waypoints 3
Social Downloads 6
Likes 0
Share VATSIM

Download

Looking for another format? Having issues loading an existing format? Contact us
Advertisement - Login to hide

Notes

Basic altitude profile: - Ascent Rate: 2500ft/min - Ascent Speed: 250kts - Cruise Altitude: 20700ft - Cruise Speed: 420kts - Descent Rate: 2000ft/min - Descent Speed: 250kts

Route

URMM ZUBOK URSS

ID Type Via Altitude Latitude Longitude Leg Dist Tot Dist Heading (true) Name
O URMM APT - 0 ft / 0 m 44.22507˚ 43.08189˚ - 0 nm - MINERALNYYE VODY
ZUBOK FIX - 14,100 ft / 4,298 m 44.16667˚ 42.16667˚ 39 nm 39 nm 265° / 265° -
O URSS APT - 0 ft / 0 m 43.44475˚ 39.94730˚ 105 nm 145 nm 247° / 245° Sochi

Altitude Profile

Advertisement - Login to hide

URMM

Details ICAO URMM (MRV)
Name MINERALNYYE VODY
Region Russia
Timezone Europe/Moscow (UTC+3.0)
Stats Elevation 1,054 ft / 321 m (AMSL)
Location 44.225073° 43.081891°
Runways 1
Magnetic Variation 7.387° E

METAR

URMM 140600Z 12004MPS 2900 -DZ BR OVC002 01/01 Q1020 R12/190160 NOSIG RMK QBB070 MT OBSC QFE737/0982

Decode

TAF

TAF URMM 140459Z 1406/1506 10003G08MPS 3100 BR OVC004 TX04/1410Z TNM02/1503Z TEMPO 1406/1409 0300 -DZ FG OVC002 BECMG 1409/1410 9999 NSW BKN011 TEMPO 1415/1506 3100 BR

Decode

Departure Runways

ID Width Length Bearing (true) Bearing (mag) Surface Threshold Offset Overrun Length
12 197 ft / 60 m 12,766 ft / 3,891 m 122.28° 114.89° Concrete 0 ft / 0 m 240 ft / 73 m
30 197 ft / 60 m 12,766 ft / 3,891 m 302.31° 294.92° Concrete 0 ft / 0 m 250 ft / 76 m

URSS

Details ICAO URSS (AER)
Name Sochi
Region Russia
Timezone Europe/Moscow (UTC+3.0)
Stats Elevation 89 ft / 27 m (AMSL)
Location 43.444749° 39.947302°
Runways 2
Magnetic Variation 6.962° E

METAR

URSS 140600Z 05004MPS 9999 NSC 06/M01 Q1017 R02/090070 R06/090070 NOSIG RMK R06/07003MPS QFE761

Decode

TAF

TAF URSS 140456Z 1406/1506 VRB01MPS 9999 BKN100 BECMG 1414/1415 05006MPS

Decode

Destination Runways

ID Width Length Bearing (true) Bearing (mag) Surface Threshold Offset Overrun Length
02 161 ft / 49 m 7,267 ft / 2,215 m 28.98° 22.02° Concrete 0 ft / 0 m 0 ft / 0 m
06 164 ft / 50 m 9,531 ft / 2,905 m 64.90° 57.94° Concrete 262 ft / 80 m 0 ft / 0 m
20 161 ft / 49 m 7,267 ft / 2,215 m 208.99° 202.03° Concrete 0 ft / 0 m 0 ft / 0 m
24 164 ft / 50 m 9,531 ft / 2,905 m 244.92° 237.96° Concrete 0 ft / 0 m 0 ft / 0 m

Approach Navaids

Runway Type Ident Frequency Range Bearing (true) Bearing (mag) Slope Elevation
02 Localiser IAD 110.50 MHz 18 nm / 33 km 30.95° 23.99° - 89 ft / 27 m (AMSL)
02 Glidescope IAD 110.50 MHz 10 nm / 19 km 28.98° 22.02° 2.80° 89 ft / 27 m (AMSL)
06 Localiser ISO 111.10 MHz 18 nm / 33 km 65.82° 58.86° - 89 ft / 27 m (AMSL)
06 Glidescope ISO 111.10 MHz 10 nm / 19 km 64.91° 57.95° 2.80° 89 ft / 27 m (AMSL)

Popular Alternatives